Accueil
METAR-TAF:

METAR-TAF

Aéroports :

Dobbiaco, Italie

latitude: 46-44N, longitude: 012-13E, altitude: 1222 m

Observation

Le bulletin a été fait il y a 25 minutes, à 17:55 UTC
Vent 5 kt de nord/nord-ouest, variant entre ouest et nord/nord-est
Température 12°C
Humidité 76%
Pression 1014 hPa

METAR: LIVD 191755Z AUTO 33005KT 270V020 //// 12/08 Q1014

Heure: 20:20 (18:20 UTC)


TAF: absent

Observations et prévisions météorologiques de plus de 4000 aéroports (messages METAR et TAF).

Les stations disponibles sont représentées par des disques jaunes et rouges sur la carte.

Passer la souris dessus pour voir le nom de la station.

Cliquer dessus pour voir les observations et prévisions météorologiques.

Pour changer de carte: cliquez sur les boutons verts avec une croix noire pour zoomer, sur le bouton vert avec un tiret pour effectuer un zoom arrière, ou sur les flèches vertes pour les cartes adjacentes.


METAR-TAF: